Location: Unspecified
(0.0000°N, 0.0000°E)
Time: 03:51:53
(UTC+00:00)

ESSA 4 - Pass Details

Date: 08 November 2024
Orbit: 1326 x 1439 km, 102.1° (Epoch: 03 December)

Event Time Altitude Azimuth Distance (km) Brightness Sun altitude
Rises 02:51:15 0° 133° (SE) 4,332 12.6 -40.9°
Reaches altitude 10° 02:54:50 10° 117° (ESE) 3,356 12.0 -40.1°
Maximum altitude 03:00:09 20° 73° (ENE) 2,647 11.1 -38.8°
Drops below altitude 10° 03:05:26 10° 29° (NNE) 3,365 11.3 -37.6°
Sets 03:09:00 0° 13° (NNE) 4,348 11.8 -36.8°
